Weather in Garrisberg

United States     40°16′21″N   76°51′57″W
temp.,
°C
wind,
m/s
gust,
m/s
humid.,
%
clouds,
%
prec.,
mm/h
press.,
hPa
HPBL,
m
21 june, mon
mon2123:00+21s2294100 1.4 100817
02:00+21s2295100 1.5 100720
05:00+20sse2298100 0.6 100627
08:00+22s2393100 1.1 1006233
11:00+27s4574100 0.0 1005781
14:00+30sw58646 0.3 10031764
17:00+30ssw611663 0.4 10001190
20:00+24wsw4886100 6.2 1003146
22 june, tue
tue2223:00+22nw51491100 6.0 1003579
02:00+19nw4995100 7.7 1006473
05:00+17nw279464 0.0 1007345
08:00+16nnw3795100 1.3 1010425
11:00+15nw1295100 3.7 1011206
14:00+19nw3576100 5.6 10121132
17:00+18nw5867100 0.1 1012993
20:00+15nnw37724 0.1 1015189
23 june, wed
wed2323:00+12nnw22760 0.0 101712
02:00+10nw11790 0.0 101910
05:00+8nw11824 0.0 102010
08:00+13nw12710 0.0 1023194
11:00+18nnw23540 0.0 1024967
14:00+22w13465 0.0 10232077
17:00+22sse22483 0.0 10231489
20:00+17sse36751 0.0 102497
24 june, thu
thu2423:00+13s117771 0.0 102611
02:00+13sse0078100 0.0 102611
05:00+12e117889 0.0 102710
08:00+15ese127451 0.0 1029162
11:00+21se46610 0.0 1028972
14:00+23sse44510 0.0 10271613
17:00+23sse45540 0.0 10261536
20:00+19sse37770 0.0 1025153
25 june, fri
fri2523:00+14se2289100 0.0 102631
02:00+12e239565 0.0 102646
05:00+12ne2296100 0.0 102529
08:00+15ene2391100 0.1 1026123
11:00+20ese3482100 0.0 1025534
14:00+19e2492100 0.1 1023303
17:00+23sse3584100 0.6 1020691
20:00+21se259397 1.9 1020159